HG5PBP-13 Weather Reports


Display with metric or nautical units.
time (UTC)temp
F
wind
direction
speed
MPH
gust
MPH
rain 1hr
in
rain 24hr
in
rain mn
in
humidity
%
barometer
mb
20260507043932 55 261 2.0 6.0 0.00 0.03 0.00 7 1010.0
20260507043432 56 261 2.0 10.0 0.00 0.03 0.00 7 1009.6
20260507042932 56 260 2.0 8.0 0.00 0.03 0.00 7 1009.8
20260507042432 56 236 4.0 12.0 0.00 0.03 0.00 7 1009.6
20260507041932 56 226 5.0 10.0 0.00 0.03 0.00 7 1009.5
20260507041432 56 227 5.0 8.0 0.00 0.03 0.00 7 1009.4
20260507040932 55 236 2.0 14.0 0.00 0.03 0.00 8 1009.4
20260507040432 55 248 5.0 10.0 0.00 0.03 0.00 8 1009.5
20260507035932 55 257 8.0 14.0 0.00 0.03 0.00 8 1009.3
20260507035432 55 232 6.0 9.0 0.00 0.03 0.00 8 1009.2
20260507034932 55 211 5.0 14.0 0.00 0.03 0.00 8 1009.2
20260507034431 55 230 5.0 9.0 0.00 0.03 0.00 8 1009.4
20260507033931 55 294 4.0 9.0 0.00 0.03 0.00 8 1009.4
20260507033431 55 264 7.0 11.0 0.00 0.03 0.00 8 1009.3
20260507032931 55 232 4.0 9.0 0.00 0.03 0.00 8 1009.3
20260507032431 56 243 2.0 10.0 0.00 0.03 0.00 8 1009.3
20260507031931 56 226 8.0 14.0 0.00 0.03 0.00 7 1009.5
20260507031431 56 250 6.0 11.0 0.00 0.03 0.00 7 1009.3
20260507030931 56 201 4.0 11.0 0.00 0.03 0.00 7 1009.1
20260507030431 56 312 5.0 10.0 0.00 0.03 0.00 7 1009.3
20260507025931 56 253 4.0 13.0 0.00 0.03 0.00 7 1009.3
20260507025431 56 255 4.0 11.0 0.00 0.03 0.00 7 1009.3
20260507024931 56 215 3.0 12.0 0.00 0.03 0.00 7 1009.1
20260507024431 57 307 6.0 10.0 0.00 0.03 0.00 7 1009.1
20260507023931 57 238 6.0 13.0 0.00 0.03 0.00 7 1009.3
20260507023431 57 254 4.0 12.0 0.00 0.03 0.00 7 1009.1
20260507022931 57 326 5.0 12.0 0.00 0.03 0.00 7 1009.1
20260507022431 57 189 5.0 12.0 0.00 0.03 0.00 7 1009.1
20260507021931 57 222 5.0 12.0 0.00 0.03 0.00 7 1009.0
20260507021431 58 283 3.0 12.0 0.00 0.03 0.00 7 1008.8
20260507020931 58 223 5.0 12.0 0.00 0.03 0.00 7 1009.1
20260507020431 58 264 7.0 12.0 0.00 0.03 0.00 7 1009.3
20260507015931 58 288 6.0 10.0 0.00 0.03 0.00 7 1008.8
20260507015431 58 290 4.0 14.0 0.00 0.03 0.00 7 1009.1
20260507014931 58 249 4.0 11.0 0.00 0.03 0.00 7 1009.0
20260507014431 57 251 4.0 10.0 0.00 0.03 0.00 7 1008.9
20260507013931 57 302 5.0 10.0 0.00 0.03 0.00 7 1009.2
20260507013431 57 259 5.0 13.0 0.00 0.03 0.00 7 1009.1
20260507012931 57 244 5.0 12.0 0.00 0.03 0.00 7 1009.3
20260507012431 58 308 5.0 11.0 0.00 0.03 0.00 7 1009.3
20260507011931 58 134 3.0 12.0 0.00 0.03 0.00 7 1009.2
20260507011431 58 239 8.0 11.0 0.00 0.03 0.00 7 1009.4
20260507010931 58 235 8.0 11.0 0.00 0.03 0.00 7 1009.1
20260507010431 58 273 4.0 12.0 0.00 0.03 0.00 7 1009.1
20260507005930 58 263 3.0 8.0 0.00 0.03 0.00 7 1009.2
20260507005430 58 279 4.0 11.0 0.00 0.03 0.00 7 1009.1
20260507004930 58 238 4.0 8.0 0.00 0.03 0.00 7 1009.2
20260507004431 58 247 3.0 11.0 0.00 0.03 0.00 7 1009.1
20260507003930 58 284 3.0 8.0 0.00 0.03 0.00 7 1009.3
20260507003430 58 243 2.0 10.0 0.00 0.03 0.00 7 1009.3
20260507002930 58 273 4.0 15.0 0.00 0.03 0.00 7 1009.4
20260507002430 58 277 1.0 9.0 0.00 0.03 0.00 7 1009.3
20260507001930 58 259 2.0 8.0 0.00 0.03 0.00 7 1009.5
20260507001430 59 223 9.0 12.0 0.00 0.03 0.00 7 1009.5
20260507000930 59 276 2.0 13.0 0.00 0.03 0.00 7 1009.5
20260507000430 59 253 2.0 9.0 0.00 0.03 0.00 7 1009.7
20260506235930 58 287 4.0 9.0 0.00 0.03 0.00 7 1009.6
20260506235430 58 188 6.0 10.0 0.00 0.03 0.00 7 1009.9
20260506234930 58 236 2.0 4.0 0.00 0.03 0.00 7 1009.7
20260506234430 58 245 3.0 11.0 0.00 0.03 0.00 7 1009.8
20260506233930 58 209 5.0 8.0 0.00 0.03 0.00 7 1009.7
20260506233430 58 269 4.0 5.0 0.00 0.03 0.00 7 1009.8
20260506232930 58 246 1.0 8.0 0.00 0.03 0.00 8 1010.0
20260506232430 57 182 1.0 8.0 0.00 0.03 0.00 8 1009.8
20260506231930 57 254 6.0 11.0 0.00 0.03 0.00 8 1010.3
20260506231430 57 251 2.0 11.0 0.00 0.03 0.00 8 1010.0
20260506230930 57 286 4.0 11.0 0.00 0.03 0.00 8 1010.1
20260506230430 57 203 7.0 15.0 0.00 0.03 0.00 8 1010.4
20260506225930 57 210 5.0 12.0 0.00 0.03 0.00 8 1010.1
20260506225430 58 175 6.0 10.0 0.00 0.02 0.00 7 1009.9
20260506224930 58 175 8.0 18.0 0.00 0.02 0.00 7 1009.9
20260506224430 59 187 6.0 13.0 0.00 0.02 0.00 7 1010.0
20260506223930 59 272 2.0 12.0 0.00 0.02 0.00 7 1009.9
20260506223430 60 142 2.0 13.0 0.00 0.02 0.00 7 1009.7
20260506222930 60 199 6.0 11.0 0.00 0.02 0.00 7 1009.4
20260506222429 60 11 3.0 12.0 0.00 0.02 0.00 7 1009.2
20260506221929 60 231 3.0 12.0 0.00 0.02 0.00 7 1008.8
20260506221429 60 244 5.0 12.0 0.00 0.02 0.00 7 1008.8
20260506220929 60 236 4.0 15.0 0.00 0.02 0.00 7 1008.9
20260506220429 60 153 3.0 6.0 0.00 0.02 0.00 7 1009.2
20260506215929 60 279 1.0 10.0 0.00 0.02 0.02 7 1009.0
20260506215429 60 240 3.0 8.0 0.00 0.02 0.02 7 1009.0
20260506214929 60 259 4.0 6.0 0.00 0.02 0.02 7 1008.8
20260506214429 60 271 4.0 6.0 0.00 0.02 0.02 7 1008.7
20260506213929 60 251 2.0 10.0 0.00 0.02 0.02 7 1008.7
20260506213429 61 247 6.0 11.0 0.00 0.02 0.02 7 1008.8
20260506212929 61 231 5.0 11.0 0.00 0.02 0.02 7 1008.8
20260506212429 61 245 6.0 10.0 0.00 0.02 0.02 7 1009.0
20260506211929 61 231 5.0 8.0 0.00 0.02 0.02 7 1008.7
20260506211429 60 286 6.0 15.0 0.00 0.02 0.02 7 1008.9
20260506210929 60 260 4.0 10.0 0.00 0.03 0.02 7 1008.7
20260506210429 60 240 4.0 9.0 0.00 0.03 0.02 7 1008.7
20260506205929 60 270 4.0 11.0 0.01 0.02 0.02 7 1008.9
20260506205429 60 256 4.0 8.0 0.02 0.04 0.02 7 1008.8
20260506204929 59 352 5.0 10.0 0.02 0.04 0.02 7 1008.9
20260506204429 59 319 4.0 5.0 0.02 0.04 0.02 7 1009.0
20260506203929 59 244 4.0 9.0 0.02 0.04 0.02 7 1009.1
20260506203429 58 250 3.0 8.0 0.02 0.04 0.02 8 1009.0
20260506202929 58 239 5.0 13.0 0.02 0.04 0.02 8 1009.2
20260506202429 58 158 4.0 10.0 0.02 0.04 0.02 8 1009.3
20260506201929 58 202 4.0 10.0 0.02 0.04 0.02 8 1009.5
20260506201429 58 192 3.0 8.0 0.02 0.04 0.02 8 1009.5
20260506200929 58 254 4.0 13.0 0.02 0.03 0.02 8 1009.8
20260506200429 59 257 3.0 13.0 0.02 0.03 0.02 8 1009.6
20260506195929 60 169 8.0 14.0 0.01 0.01 0.01 7 1009.6
20260506195428 62 251 6.0 13.0 0.00 0.00 0.00 7 1009.3
20260506194928 63 254 6.0 15.0 0.00 0.00 0.00 6 1009.1
20260506194428 64 231 8.0 14.0 0.00 0.00 0.00 6 1008.8
20260506193928 65 260 5.0 14.0 0.00 0.00 0.00 6 1008.5
20260506193428 65 270 10.0 19.0 0.00 0.00 0.00 5 1008.5
20260506192928 66 225 5.0 10.0 0.00 0.00 0.00 5 1008.4
20260506192428 66 188 1.0 6.0 0.00 0.00 0.00 5 1008.1
20260506191928 65 235 1.0 4.0 0.00 0.00 0.00 5 1008.2
20260506191428 66 265 4.0 6.0 0.00 0.00 0.00 5 1008.0
20260506190928 66 242 1.0 6.0 0.00 0.00 0.00 5 1008.0
20260506190428 66 237 4.0 6.0 0.00 0.00 0.00 5 1008.0
20260506185928 66 265 2.0 9.0 0.00 0.00 0.00 5 1007.9
20260506185428 66 275 3.0 5.0 0.00 0.00 0.00 5 1008.0
20260506184928 66 262 3.0 4.0 0.00 0.00 0.00 5 1008.0
20260506184428 66 120 0.0 8.0 0.00 0.00 0.00 5 1008.1
20260506183928 66 230 2.0 5.0 0.00 0.00 0.00 5 1007.9
20260506183429 66 286 1.0 9.0 0.00 0.00 0.00 5 1008.1
20260506182928 66 222 1.0 8.0 0.00 0.00 0.00 5 1007.6
20260506182428 65 279 1.0 5.0 0.00 0.00 0.00 5 1007.7
20260506181928 65 204 2.0 5.0 0.00 0.00 0.00 5 1007.7
20260506181428 65 239 1.0 4.0 0.00 0.00 0.00 5 1007.4
20260506180928 66 299 1.0 6.0 0.00 0.00 0.00 5 1007.6
20260506180428 66 251 1.0 3.0 0.00 0.00 0.00 5 1007.6
20260506175928 66 265 1.0 4.0 0.00 0.00 0.00 5 1007.4
20260506175428 66 253 3.0 9.0 0.00 0.00 0.00 5 1007.6
20260506174928 66 218 2.0 4.0 0.00 0.00 0.00 5 1007.2
20260506174428 67 291 1.0 5.0 0.00 0.00 0.00 5 1007.3
20260506173928 67 231 1.0 3.0 0.00 0.00 0.00 5 1007.5
20260506173428 67 252 0.0 3.0 0.00 0.00 0.00 5 1007.6
20260506172928 67 269 3.0 4.0 0.00 0.00 0.00 5 1007.6
20260506172427 67 135 1.0 4.0 0.00 0.00 0.00 5 1007.5
20260506171927 68 292 1.0 4.0 0.00 0.00 0.00 5 1007.5
20260506171427 68 276 4.0 10.0 0.00 0.00 0.00 5 1007.2
20260506170927 68 249 2.0 6.0 0.00 0.00 0.00 5 1007.4
20260506170427 68 256 3.0 5.0 0.00 0.00 0.00 5 1007.2
20260506165927 68 261 1.0 4.0 0.00 0.00 0.00 5 1007.4
20260506165427 68 253 1.0 5.0 0.00 0.00 0.00 5 1007.1
20260506164927 68 310 1.0 4.0 0.00 0.00 0.00 5 1007.2
20260506164427 69 229 3.0 5.0 0.00 0.00 0.00 5 1007.1
20260506163927 69 267 2.0 5.0 0.00 0.00 0.00 5 1007.3
20260506163427 69 134 2.0 8.0 0.00 0.00 0.00 5 1007.4
20260506162927 69 338 5.0 8.0 0.00 0.00 0.00 5 1007.4
20260506162427 69 200 3.0 4.0 0.00 0.00 0.00 5 1007.3
20260506161927 69 214 4.0 10.0 0.00 0.00 0.00 5 1007.3
20260506161427 69 309 5.0 10.0 0.00 0.00 0.00 5 1007.3
20260506160927 69 181 2.0 8.0 0.00 0.00 0.00 5 1007.3
20260506160427 70 251 2.0 9.0 0.00 0.00 0.00 5 1007.1
20260506155927 70 270 4.0 9.0 0.00 0.00 0.00 5 1007.4
20260506155427 70 239 4.0 13.0 0.00 0.00 0.00 5 1007.4
20260506154927 70 226 5.0 12.0 0.00 0.00 0.00 5 1007.2
20260506154427 70 177 7.0 12.0 0.00 0.00 0.00 5 1007.3
20260506153927 70 220 5.0 8.0 0.00 0.00 0.00 4 1007.3
20260506153427 70 218 1.0 4.0 0.00 0.00 0.00 5 1007.5
20260506152927 70 271 2.0 6.0 0.00 0.00 0.00 4 1007.3
20260506152427 70 149 4.0 13.0 0.00 0.00 0.00 5 1007.4
20260506151927 70 187 6.0 8.0 0.00 0.00 0.00 5 1007.3
20260506151427 70 170 5.0 9.0 0.00 0.00 0.00 4 1007.4
20260506150927 70 208 1.0 5.0 0.00 0.00 0.00 4 1007.5
20260506150427 71 221 3.0 11.0 0.00 0.00 0.00 4 1007.4
20260506145927 71 148 8.0 18.0 0.00 0.00 0.00 4 1007.1
20260506145427 71 176 0.0 11.0 0.00 0.00 0.00 4 1007.2
20260506144926 72 217 5.0 10.0 0.00 0.00 0.00 4 1007.0
20260506144427 72 216 6.0 10.0 0.00 0.00 0.00 4 1007.0
20260506143926 71 137 1.0 5.0 0.00 0.00 0.00 4 1007.4
20260506143426 71 265 2.0 13.0 0.00 0.00 0.00 4 1007.4
20260506142926 71 135 3.0 11.0 0.00 0.00 0.00 4 1007.3
20260506142426 71 218 2.0 12.0 0.00 0.00 0.00 4 1007.3
20260506141926 71 233 8.0 11.0 0.00 0.00 0.00 4 1007.7
20260506141426 71 197 6.0 11.0 0.00 0.00 0.00 4 1007.8
20260506140926 71 174 7.0 15.0 0.00 0.00 0.00 4 1007.6
20260506140426 72 205 4.0 9.0 0.00 0.00 0.00 4 1007.6
20260506135926 73 170 5.0 15.0 0.00 0.00 0.00 4 1007.4
20260506135426 72 130 10.0 29.0 0.00 0.00 0.00 4 1007.3
20260506134926 72 216 3.0 12.0 0.00 0.00 0.00 4 1007.3
20260506134426 72 199 5.0 11.0 0.00 0.00 0.00 4 1007.2
20260506133426 72 285 4.0 13.0 0.00 0.00 0.00 4 1007.6
20260506132926 72 169 12.0 25.0 0.00 0.00 0.00 4 1007.6
20260506132426 72 150 4.0 11.0 0.00 0.00 0.00 4 1007.5
20260506131926 72 242 8.0 17.0 0.00 0.00 0.00 4 1007.7
20260506131426 72 189 7.0 11.0 0.00 0.00 0.00 4 1007.8
20260506130926 72 179 3.0 11.0 0.00 0.00 0.00 4 1007.6
20260506130426 71 140 7.0 13.0 0.00 0.00 0.00 4 1007.9
20260506125926 71 125 8.0 18.0 0.00 0.00 0.00 4 1007.9
20260506125426 71 269 5.0 14.0 0.00 0.00 0.00 4 1008.1
20260506124926 71 231 9.0 15.0 0.00 0.00 0.00 4 1008.1
20260506124426 71 173 6.0 17.0 0.00 0.00 0.00 4 1007.8
20260506123926 71 151 4.0 15.0 0.00 0.00 0.00 4 1007.8
20260506123426 71 145 6.0 9.0 0.00 0.00 0.00 4 1008.0
20260506122926 71 150 10.0 21.0 0.00 0.00 0.00 4 1008.2
20260506122426 70 232 8.0 12.0 0.00 0.00 0.00 4 1007.9
20260506121926 70 162 3.0 11.0 0.00 0.00 0.00 4 1008.2
20260506121426 70 246 3.0 10.0 0.00 0.00 0.00 4 1008.2
20260506120925 70 181 10.0 20.0 0.00 0.00 0.00 4 1007.9
20260506120425 71 179 12.0 20.0 0.00 0.00 0.00 4 1008.1
20260506115925 71 184 8.0 18.0 0.00 0.00 0.00 5 1008.0
20260506115425 70 301 9.0 19.0 0.00 0.00 0.00 5 1008.1
20260506114925 70 143 3.0 13.0 0.00 0.00 0.00 5 1008.1
20260506114425 70 160 5.0 8.0 0.00 0.00 0.00 5 1008.1
20260506113925 70 179 5.0 13.0 0.00 0.00 0.00 5 1008.1
20260506113425 70 216 11.0 23.0 0.00 0.00 0.00 5 1008.5
20260506112925 69 239 6.0 14.0 0.00 0.00 0.00 5 1008.3
20260506112425 69 200 8.0 15.0 0.00 0.00 0.00 5 1008.6
20260506111925 69 191 15.0 18.0 0.00 0.00 0.00 5 1008.5
20260506111425 69 218 10.0 19.0 0.00 0.00 0.00 5 1008.5
20260506110925 69 217 20.0 22.0 0.00 0.00 0.00 5 1008.7
20260506110425 69 175 9.0 14.0 0.00 0.00 0.00 5 1008.5
20260506105925 68 210 8.0 20.0 0.00 0.00 0.00 5 1008.7
20260506105425 68 162 3.0 13.0 0.00 0.00 0.00 5 1008.6
20260506104925 68 202 4.0 13.0 0.00 0.00 0.00 5 1008.6
20260506104425 68 187 10.0 18.0 0.00 0.00 0.00 5 1008.7
20260506103925 68 156 6.0 12.0 0.00 0.00 0.00 5 1008.6
20260506103425 68 146 3.0 10.0 0.00 0.00 0.00 5 1008.6
20260506102925 68 205 3.0 15.0 0.00 0.00 0.00 5 1008.9
20260506102425 67 130 3.0 14.0 0.00 0.00 0.00 5 1009.0
20260506101925 67 171 3.0 14.0 0.00 0.00 0.00 5 1009.1
20260506101425 66 324 5.0 12.0 0.00 0.00 0.00 6 1008.9
20260506100925 65 104 7.0 11.0 0.00 0.00 0.00 6 1009.0
20260506100425 65 229 7.0 15.0 0.00 0.00 0.00 6 1009.1
20260506095925 65 179 4.0 8.0 0.00 0.00 0.00 6 1009.2
20260506095425 65 188 8.0 18.0 0.00 0.00 0.00 6 1009.4
20260506094924 65 222 6.0 10.0 0.00 0.00 0.00 6 1009.0
20260506094425 65 143 6.0 17.0 0.00 0.00 0.00 6 1009.2
20260506093924 64 203 5.0 12.0 0.00 0.00 0.00 6 1009.2
20260506093424 64 189 10.0 12.0 0.00 0.00 0.00 6 1009.3
20260506092924 64 245 4.0 10.0 0.00 0.00 0.00 6 1009.0
20260506092424 64 208 3.0 10.0 0.00 0.00 0.00 6 1009.0
20260506091924 64 204 7.0 22.0 0.00 0.00 0.00 6 1009.3
20260506091424 64 156 10.0 18.0 0.00 0.00 0.00 6 1009.2
20260506090924 64 191 10.0 14.0 0.00 0.00 0.00 6 1009.2
20260506090424 64 313 5.0 14.0 0.00 0.00 0.00 6 1009.2
20260506085924 64 209 4.0 10.0 0.00 0.00 0.00 6 1009.2
20260506085424 64 162 6.0 11.0 0.00 0.00 0.00 6 1009.2
20260506084924 64 134 4.0 13.0 0.00 0.00 0.00 6 1009.1
20260506084424 64 173 7.0 19.0 0.00 0.00 0.00 6 1009.6
20260506083924 63 140 8.0 17.0 0.00 0.00 0.00 6 1009.2
20260506083424 63 188 5.0 11.0 0.00 0.00 0.00 6 1009.4
20260506082924 62 153 10.0 12.0 0.00 0.00 0.00 6 1009.2
20260506082424 62 149 8.0 12.0 0.00 0.00 0.00 6 1009.3
20260506081924 62 127 4.0 9.0 0.00 0.00 0.00 6 1009.3
20260506081424 61 114 2.0 9.0 0.00 0.00 0.00 6 1009.4
20260506080924 61 175 2.0 9.0 0.00 0.00 0.00 6 1009.5
20260506080424 61 148 8.0 11.0 0.00 0.00 0.00 6 1009.4
20260506073424 59 147 2.0 14.0 0.00 0.00 0.00 6 1009.7
20260506072924 59 207 4.0 5.0 0.00 0.00 0.00 6 1009.5
20260506072424 59 261 2.0 8.0 0.00 0.00 0.00 7 1009.6
20260506071924 58 276 3.0 9.0 0.00 0.00 0.00 7 1009.6
20260506071424 58 201 3.0 6.0 0.00 0.00 0.00 7 1009.7
20260506070923 58 157 3.0 6.0 0.00 0.00 0.00 7 1009.6
20260506070423 57 206 9.0 14.0 0.00 0.00 0.00 7 1009.6
20260506062423 55 243 5.0 11.0 0.00 0.00 0.00 7 1009.9
20260506061923 55 186 1.0 10.0 0.00 0.00 0.00 7 1009.9
20260506061423 55 215 7.0 11.0 0.00 0.00 0.00 7 1010.0
20260506060923 55 246 2.0 6.0 0.00 0.00 0.00 7 1009.7
20260506060423 55 182 2.0 8.0 0.00 0.00 0.00 7 1009.7
20260506050923 53 228 2.0 12.0 0.00 0.00 0.00 7 1009.9
20260506050423 53 207 1.0 9.0 0.00 0.00 0.00 7 1009.8
20260506044923 52 252 2.0 8.0 0.00 0.00 0.00 7 1009.5